Photometre #140[NE_1.6] Ersa AOT

File : 20200928_140.hum

28/09/2020,06:06:27,TEMP=16.9,BA=5.12,STAT.A=Abs.,ExtBa=13.06
28/09/2020,06:09:59,TEMP=17.0,BA=5.12,STAT.A=Abs.,ExtBa=13.01
28/09/2020,06:14:09,TEMP=17.0,BA=5.08,STAT.A=Abs.,ExtBa=12.99
28/09/2020,06:19:06,TEMP=17.0,BA=5.08,STAT.A=Abs.,ExtBa=12.97
28/09/2020,06:25:04,TEMP=17.1,BA=5.08,STAT.A=Abs.,ExtBa=12.98
28/09/2020,06:32:26,TEMP=17.4,BA=5.12,STAT.A=Abs.,ExtBa=12.97
28/09/2020,06:41:45,TEMP=17.5,BA=5.12,STAT.B=Abs.,ExtBa=12.96
28/09/2020,06:46:13,TEMP=17.5,BA=5.12,STAT.A=Abs.,ExtBa=12.94
28/09/2020,06:51:14,TEMP=17.4,BA=5.12,STAT.A=Abs.,ExtBa=12.95
28/09/2020,06:56:54,TEMP=17.2,BA=5.12,STAT.A=Abs.,ExtBa=12.94
28/09/2020,07:03:21,TEMP=17.5,BA=5.12,STAT.A=Abs.,ExtBa=12.95
28/09/2020,07:10:46,TEMP=17.2,BA=5.12,STAT.C=Abs.,ExtBa=12.96
28/09/2020,07:19:26,TEMP=17.1,BA=5.12,STAT.A=Abs.,ExtBa=12.96
28/09/2020,07:29:40,TEMP=17.0,BA=5.08,STAT.A=Abs.,ExtBa=12.98
28/09/2020,07:42:02,TEMP=17.5,BA=5.12,STAT.A=Abs.,ExtBa=12.99
28/09/2020,07:57:20,TEMP=17.9,BA=5.12,STAT.A=Abs.,ExtBa=12.99
28/09/2020,08:13:31,TEMP=18.2,BA=5.12,STAT.F,ExtBa=13.00
28/09/2020,08:28:30,TEMP=18.1,BA=5.12,STAT.D=Abs.,ExtBa=12.99
28/09/2020,08:43:30,TEMP=18.5,BA=5.12,STAT.D=Abs.,ExtBa=13.00
28/09/2020,08:58:30,TEMP=18.8,BA=5.12,STAT.D=Abs.,ExtBa=13.01
28/09/2020,09:13:32,TEMP=19.0,BA=5.12,STAT.F,ExtBa=13.00
28/09/2020,09:28:30,TEMP=18.6,BA=5.12,STAT.D=Abs.,ExtBa=13.00
28/09/2020,09:43:30,TEMP=18.8,BA=5.12,STAT.D=Abs.,ExtBa=13.01
28/09/2020,09:58:30,TEMP=19.2,BA=5.12,STAT.D=Abs.,ExtBa=13.00
28/09/2020,10:13:32,TEMP=19.3,BA=5.12,STAT.F,ExtBa=13.01
28/09/2020,10:28:30,TEMP=19.8,BA=5.12,STAT.D=Abs.,ExtBa=13.01
28/09/2020,10:43:30,TEMP=20.0,BA=5.12,STAT.D=Abs.,ExtBa=13.02
28/09/2020,10:58:30,TEMP=19.0,BA=5.12,STAT.D=Abs.,ExtBa=13.01
28/09/2020,11:13:32,TEMP=19.1,BA=5.12,STAT.F,ExtBa=13.03
28/09/2020,11:28:30,TEMP=19.1,BA=5.12,STAT.D=Abs.,ExtBa=13.01
28/09/2020,11:43:30,TEMP=19.1,BA=5.12,STAT.D=Abs.,ExtBa=13.01
28/09/2020,11:58:30,TEMP=19.5,BA=5.12,STAT.D=Abs.,ExtBa=13.01
28/09/2020,12:13:32,TEMP=19.8,BA=5.12,STAT.F,ExtBa=13.01
28/09/2020,12:28:30,TEMP=19.4,BA=5.12,STAT.D=Abs.,ExtBa=13.01
28/09/2020,12:43:30,TEMP=20.5,BA=5.12,STAT.D=Abs.,ExtBa=13.00
28/09/2020,12:58:30,TEMP=20.1,BA=5.12,STAT.D=Abs.,ExtBa=13.02
28/09/2020,13:13:32,TEMP=20.5,BA=5.12,STAT.F,ExtBa=13.00
28/09/2020,13:28:30,TEMP=20.8,BA=5.12,STAT.D=Abs.,ExtBa=13.00
28/09/2020,13:43:30,TEMP=20.9,BA=5.12,STAT.D=Abs.,ExtBa=13.01
28/09/2020,13:58:30,TEMP=20.0,BA=5.12,STAT.D=Abs.,ExtBa=13.00
28/09/2020,14:13:31,TEMP=19.6,BA=5.12,STAT.F,ExtBa=13.00
28/09/2020,14:29:42,TEMP=20.5,BA=5.12,STAT.A=Abs.,ExtBa=13.00
28/09/2020,14:45:00,TEMP=20.1,BA=5.12,STAT.A=Abs.,ExtBa=13.00
28/09/2020,14:57:22,TEMP=19.4,BA=5.12,STAT.A=Abs.,ExtBa=13.00
28/09/2020,15:07:36,TEMP=19.1,BA=5.12,STAT.A=Abs.,ExtBa=12.98
28/09/2020,15:16:16,TEMP=19.0,BA=5.12,STAT.C=Abs.,ExtBa=12.99
28/09/2020,15:23:41,TEMP=19.0,BA=5.12,STAT.A=Abs.,ExtBa=12.97
28/09/2020,15:30:08,TEMP=19.0,BA=5.08,STAT.A=Abs.,ExtBa=12.96
28/09/2020,15:35:48,TEMP=19.1,BA=5.08,STAT.A=Abs.,ExtBa=12.96
28/09/2020,15:40:49,TEMP=19.1,BA=5.12,STAT.A=Abs.,ExtBa=12.96
28/09/2020,15:45:17,TEMP=19.2,BA=5.12,STAT.B=Abs.,ExtBa=12.96
28/09/2020,15:54:36,TEMP=19.1,BA=5.12,STAT.A=Abs.,ExtBa=12.98
28/09/2020,16:01:57,TEMP=19.0,BA=5.12,STAT.A=Abs.,ExtBa=12.97
28/09/2020,16:07:56,TEMP=18.8,BA=5.12,STAT.A=Abs.,ExtBa=12.97
28/09/2020,16:12:51,TEMP=18.7,BA=5.12,STAT.A=Abs.,ExtBa=12.96
28/09/2020,16:17:01,TEMP=19.0,BA=5.12,STAT.A=Abs.,ExtBa=12.94
28/09/2020,16:20:33,TEMP=19.2,BA=5.12,STAT.A=Abs.,ExtBa=12.93